Hourly Weather Czyzowka

Today, 19 May, Wednesday

Time Temperature Precipitation Wind Pressure Humidity
00:00 +8°C° 0 mm 3 mps 726 mmHg 94%
01:00 +7°C° 0 mm 3 mps 726 mmHg 95%
02:00 +7°C° 0 mm 3 mps 726 mmHg 95%
03:00 +5°C° 0 mm 3 mps 726 mmHg 95%
04:00 +5°C° 0 mm 3 mps 726 mmHg 95%
05:00 +7°C° 0 mm 3 mps 727 mmHg 91%
06:00 +9°C° 0 mm 3 mps 727 mmHg 86%
07:00 +10°C° 0 mm 4 mps 727 mmHg 82%
08:00 +11°C° 0.1 mm 4 mps 727 mmHg 75%
09:00 +12°C° 0.1 mm 4 mps 727 mmHg 67%
10:00 +14°C° 0.1 mm 3 mps 727 mmHg 60%
11:00 +14°C° 0.1 mm 3 mps 727 mmHg 59%
12:00 +14°C° 0.1 mm 3 mps 727 mmHg 58%
13:00 +14°C° 0.1 mm 3 mps 727 mmHg 57%
14:00 +14°C° 0.1 mm 3 mps 727 mmHg 59%
15:00 +14°C° 0.1 mm 3 mps 727 mmHg 62%
16:00 +14°C° 0.1 mm 3 mps 727 mmHg 65%
17:00 +13°C° 0.1 mm 3 mps 727 mmHg 70%
18:00 +11°C° 0.1 mm 3 mps 727 mmHg 76%
19:00 +10°C° 0.1 mm 3 mps 727 mmHg 82%
20:00 +10°C° 0.1 mm 2 mps 727 mmHg 86%
21:00 +9°C° 0.1 mm 2 mps 727 mmHg 89%
22:00 +8°C° 0.1 mm 2 mps 728 mmHg 92%
23:00 +8°C° 0 mm 2 mps 728 mmHg 93%

Tomorrow, 20 May, Thursday

Time Temperature Precipitation Wind Pressure Humidity
00:00 +8°C° 0 mm 2 mps 728 mmHg 93%
01:00 +7°C° 0 mm 2 mps 728 mmHg 94%
02:00 +7°C° 0 mm 2 mps 728 mmHg 94%
03:00 +7°C° 0 mm 2 mps 728 mmHg 94%
04:00 +7°C° 0 mm 2 mps 728 mmHg 95%
05:00 +8°C° 0.1 mm 2 mps 728 mmHg 91%
06:00 +9°C° 0.1 mm 3 mps 729 mmHg 87%
07:00 +9°C° 0.1 mm 3 mps 729 mmHg 83%
08:00 +10°C° 0.2 mm 4 mps 729 mmHg 77%
09:00 +11°C° 0.2 mm 4 mps 730 mmHg 70%
10:00 +12°C° 0.2 mm 4 mps 730 mmHg 64%
11:00 +13°C° 0 mm 4 mps 730 mmHg 60%
12:00 +14°C° 0 mm 4 mps 730 mmHg 55%
13:00 +15°C° 0 mm 4 mps 730 mmHg 51%
14:00 +15°C° 0 mm 4 mps 730 mmHg 53%
15:00 +15°C° 0 mm 4 mps 730 mmHg 56%
16:00 +14°C° 0 mm 4 mps 730 mmHg 59%
17:00 +13°C° 0.3 mm 3 mps 730 mmHg 68%
18:00 +12°C° 0.3 mm 3 mps 731 mmHg 77%
19:00 +10°C° 0.3 mm 3 mps 731 mmHg 86%
20:00 +9°C° 0.1 mm 2 mps 731 mmHg 89%
21:00 +8°C° 0.1 mm 2 mps 731 mmHg 92%
22:00 +8°C° 0.1 mm 2 mps 732 mmHg 95%
23:00 +7°C° 0 mm 2 mps 732 mmHg 95%

Day after tomorrow, 21 May, Friday

Time Temperature Precipitation Wind Pressure Humidity
00:00 +7°C° 0 mm 2 mps 732 mmHg 95%
01:00 +6°C° 0 mm 2 mps 732 mmHg 95%
02:00 +6°C° 0 mm 2 mps 732 mmHg 95%
03:00 +7°C° 0 mm 1 mps 732 mmHg 95%
04:00 +6°C° 0 mm 1 mps 732 mmHg 95%
05:00 +8°C° 0 mm 1 mps 732 mmHg 91%
06:00 +10°C° 0 mm 1 mps 732 mmHg 86%
07:00 +11°C° 0 mm 1 mps 732 mmHg 81%
08:00 +13°C° 0 mm 2 mps 732 mmHg 72%
09:00 +14°C° 0 mm 2 mps 732 mmHg 63%
10:00 +16°C° 0 mm 2 mps 731 mmHg 54%
11:00 +17°C° 0 mm 2 mps 731 mmHg 51%
12:00 +17°C° 0 mm 2 mps 731 mmHg 48%
13:00 +18°C° 0 mm 2 mps 730 mmHg 45%
14:00 +18°C° 0 mm 2 mps 730 mmHg 46%
15:00 +19°C° 0 mm 3 mps 729 mmHg 48%
16:00 +19°C° 0 mm 3 mps 729 mmHg 49%
17:00 +17°C° 0 mm 3 mps 729 mmHg 58%
18:00 +15°C° 0 mm 2 mps 728 mmHg 67%
19:00 +14°C° 0 mm 2 mps 728 mmHg 76%
20:00 +13°C° 0 mm 2 mps 728 mmHg 77%
21:00 +12°C° 0 mm 2 mps 728 mmHg 78%
22:00 +12°C° 0 mm 2 mps 728 mmHg 78%
23:00 +10°C° 0 mm 2 mps 727 mmHg 79%

22 May, Saturday

Time Temperature Precipitation Wind Pressure Humidity
00:00 +10°C° 0 mm 2 mps 727 mmHg 79%
01:00 +9°C° 0 mm 2 mps 727 mmHg 79%
02:00 +9°C° 0 mm 2 mps 726 mmHg 78%
03:00 +9°C° 0 mm 2 mps 726 mmHg 77%
04:00 +9°C° 0 mm 2 mps 725 mmHg 76%
05:00 +10°C° 0 mm 2 mps 725 mmHg 73%
06:00 +12°C° 0 mm 3 mps 725 mmHg 69%
07:00 +14°C° 0 mm 3 mps 725 mmHg 66%
08:00 +16°C° 0 mm 3 mps 725 mmHg 60%
09:00 +18°C° 0 mm 4 mps 725 mmHg 53%
10:00 +20°C° 0 mm 4 mps 725 mmHg 47%
11:00 +20°C° 0 mm 5 mps 724 mmHg 48%
12:00 +20°C° 0 mm 5 mps 724 mmHg 49%
13:00 +20°C° 0 mm 6 mps 723 mmHg 50%
14:00 +19°C° 0.1 mm 5 mps 723 mmHg 57%
15:00 +16°C° 0.1 mm 5 mps 723 mmHg 65%
16:00 +14°C° 0.1 mm 5 mps 723 mmHg 73%
17:00 +13°C° 0.3 mm 4 mps 723 mmHg 79%
18:00 +12°C° 0.3 mm 4 mps 723 mmHg 85%
19:00 +11°C° 0.3 mm 4 mps 724 mmHg 92%
20:00 +11°C° 1.6 mm 4 mps 724 mmHg 93%
21:00 +10°C° 1.6 mm 3 mps 725 mmHg 94%
22:00 +10°C° 1.6 mm 3 mps 725 mmHg 96%
23:00 +10°C° 0.7 mm 3 mps 726 mmHg 95%

23 May, Sunday

Time Temperature Precipitation Wind Pressure Humidity
00:00 +8°C° 0.7 mm 4 mps 726 mmHg 94%
01:00 +8°C° 0.7 mm 4 mps 726 mmHg 93%
02:00 +9°C° 0.1 mm 3 mps 726 mmHg 92%
03:00 +8°C° 0.1 mm 3 mps 726 mmHg 92%
04:00 +8°C° 0.1 mm 3 mps 726 mmHg 91%
05:00 +9°C° 0 mm 3 mps 727 mmHg 88%
06:00 +9°C° 0 mm 3 mps 727 mmHg 85%
07:00 +10°C° 0 mm 4 mps 727 mmHg 82%
08:00 +11°C° 0.1 mm 4 mps 727 mmHg 76%
09:00 +12°C° 0.1 mm 4 mps 727 mmHg 71%
10:00 +13°C° 0.1 mm 4 mps 728 mmHg 65%
11:00 +14°C° 0.2 mm 4 mps 728 mmHg 64%
12:00 +14°C° 0.2 mm 5 mps 728 mmHg 62%
13:00 +15°C° 0.2 mm 5 mps 728 mmHg 61%
14:00 +14°C° 0.4 mm 5 mps 728 mmHg 66%
15:00 +13°C° 0.4 mm 5 mps 729 mmHg 72%
16:00 +13°C° 0.4 mm 5 mps 729 mmHg 78%
17:00 +12°C° 0.5 mm 4 mps 729 mmHg 81%
18:00 +11°C° 0.5 mm 4 mps 730 mmHg 85%
19:00 +10°C° 0.5 mm 4 mps 730 mmHg 88%
20:00 +9°C° 0.1 mm 3 mps 731 mmHg 89%
21:00 +9°C° 0.1 mm 3 mps 731 mmHg 91%
22:00 +8°C° 0.1 mm 3 mps 732 mmHg 92%
23:00 +7°C° 0 mm 2 mps 732 mmHg 92%

24 May, Monday

Time Temperature Precipitation Wind Pressure Humidity
00:00 +7°C° 0 mm 2 mps 732 mmHg 92%
01:00 +6°C° 0 mm 2 mps 733 mmHg 93%
02:00 +5°C° 0 mm 3 mps 733 mmHg 92%
03:00 +5°C° 0 mm 3 mps 733 mmHg 92%
04:00 +5°C° 0 mm 4 mps 733 mmHg 92%
05:00 +6°C° 0 mm 4 mps 734 mmHg 88%
06:00 +7°C° 0 mm 5 mps 734 mmHg 83%
07:00 +8°C° 0 mm 6 mps 734 mmHg 79%
08:00 +10°C° 0 mm 6 mps 734 mmHg 71%
09:00 +11°C° 0 mm 6 mps 735 mmHg 64%
10:00 +12°C° 0 mm 7 mps 735 mmHg 57%
11:00 +12°C° 0 mm 7 mps 734 mmHg 58%
12:00 +14°C° 0 mm 7 mps 734 mmHg 59%
13:00 +14°C° 0 mm 6 mps 734 mmHg 60%
14:00 +14°C° 0.2 mm 6 mps 734 mmHg 61%
15:00 +14°C° 0.2 mm 6 mps 734 mmHg 62%
16:00 +14°C° 0.2 mm 6 mps 734 mmHg 63%
17:00 +14°C° 0 mm 5 mps 734 mmHg 67%
18:00 +13°C° 0 mm 4 mps 734 mmHg 71%
19:00 +12°C° 0 mm 3 mps 734 mmHg 75%
20:00 +12°C° 0 mm 2 mps 734 mmHg 77%
21:00 +10°C° 0 mm 2 mps 734 mmHg 80%
22:00 +9°C° 0 mm 2 mps 734 mmHg 82%
23:00 +9°C° 0 mm 2 mps 734 mmHg 82%
Show more

We Need Your Consent

Meteoprog and our Service Providers may store and access personal data such as cookies, device identifiers or other similar technologies on your device and process such data to personalise content and ads, as well as provide social media features and to analyse the traffic.

  • Store and/or access information on your device

    Cookies, device identifiers or other information can be stored or accessed on your device for the purposes indicated above.

  • Personalised ads and content, ad and content measurement, audience insights, and products development

    Ads and content can be personalised based on a profile. More data can be added to better personalise ads and content. Ad and content performance can be measured. Insights about the audience who saw the ads and content can be derived. Such data can be used to develop or improve user’s experience, systems and software.

By clicking ‘I Agree’ you will allow the use of indicated cookies, device identifiers, web beacons or other similar technologies. Your settings can be changed in the browser on your device.

For certain purposes, legitimate interests may be relied on, rather than consent. You can read more about this in our Privacy and Cookie Policy.